Location: Peterborough
(44.3091°N, 78.3197°W)
Time: 05:07:19
(UTC-04:00)

Vanguard 1 Rocket - Pass Details

Date: 28 March 2023
Orbit: 655 x 4220 km, 34.3° (Epoch: 04 June)

Event Time Altitude Azimuth Distance (km) Brightness Sun altitude
Rises 01:02:18 0° 254° (WSW) 8,347 12.2 -42.7°
Reaches altitude 10° 01:08:37 10° 251° (WSW) 7,073 11.7 -42.8°
Enters shadow 01:18:20 30° 242° (WSW) 4,978 10.8 -42.8°
Maximum altitude 01:29:40 58° 180° (S) 2,990 - -42.7°
Drops below altitude 10° 01:40:56 10° 106° (ESE) 4,038 - -42.5°
Exits shadow 01:42:14 - 103° (ESE) 4,363 10.8 -42.5°
Sets 01:43:29 0° 101° (ESE) 4,693 11.0 -42.5°
